Lid_Strength_Index
1 1 0 0 0 0 0 -0 -1 -1 -1 -1 -0 -1 -0 -1 -1 -1 -1 -0 -0 -0 -0 -0 -0 -0 0 1 1 1 2 1 3 1 0 -0 -0 -1 -1 -2 -1 -1 -1
1 1 1 0 0 0 0 -0 -1 -0 -1 -1 -1 -1 -0 -0 -0 -0 0 -0 -0 0 0 0 1 2 1 0 2 0 1 0 2 2 1 1 -0 -1 -1 -1 -1 -1 -1
1 1 1 1 1 1 0 -0 -0 -0 -0 -0 -0 0 -0 -0 -0 -1 -1 -0 0 2 2 2 2 2 3 3 2 2 1 1 1 2 2 1 1 -0 0 -1 -0 -1 -1
1 1 1 1 1 1 0 -0 0 -0 -0 -0 -0 -0 -0 -1 -1 -1 -1 0 0 1 2 2 3 3 3 3 2 2 2 2 1 2 2 1 1 0 0 1 1 0 0
1 1 1 1 1 0 1 0 1 0 0 -0 -0 -1 -1 -0 2 0 0 -0 -0 0 0 1 1 1 2 3 3 2 2 3 3 3 3 2 2 2 2 2 2 1 0
1 1 1 1 0 1 1 1 1 0 0 -0 0 0 0 2 4 3 1 1 0 1 1 2 2 2 2 3 4 4 4 3 3 4 3 3 2 2 2 3 3 3 4
1 1 1 1 1 1 1 1 1 1 0 1 1 1 2 2 4 3 1 1 2 1 1 2 3 3 2 1 1 1 3 4 4 3 3 3 3 3 3 3 2 3 3
1 1 1 1 1 1 1 1 1 1 1 1 1 0 1 3 4 4 2 1 1 1 1 2 2 2 3 3 1 2 2 2 2 3 2 2 2 2 2 2 1 1 1
2 2 1 1 1 1 1 1 1 1 1 2 1 1 2 3 5 4 3 1 2 2 1 2 2 2 6 5 3 2 2 2 2 2 2 2 2 2 3 3 3 4 4
2 1 1 1 1 1 1 1 0 0 1 2 1 0 2 2 5 5 3 2 2 2 1 0 3 3 6 6 4 4 3 3 4 2 2 1 2 1 2 2 3 4 5
1 1 1 1 1 1 1 1 0 1 1 1 1 1 1 2 3 6 5 1 2 2 3 3 2 5 5 6 6 5 4 3 4 3 2 3 3 3 3 2 1 3 4
1 1 1 1 1 1 1 1 0 1 1 1 1 2 2 2 3 5 5 6 5 3 3 2 2 5 6 6 5 4 4 4 3 3 3 3 3 3 2 1 -1 -1 -0
1 2 1 1 1 1 1 1 2 1 1 1 3 4 3 2 2 5 5 5 6 5 2 2 4 5 6 5 5 4 4 2 1 1 2 1 1 0 -1 -1 -1 -3 -2
2 2 1 1 2 1 1 1 1 1 2 3 4 4 4 3 3 2 3 3 5 3 2 2 2 2 3 1 1 0 -0 0 0 1 1 0 -0 0 0 0 1 1 1
2 2 2 1 1 1 0 1 1 1 3 3 4 3 4 4 3 5 5 3 2 4 4 1 0 0 1 1 0 -0 0 -0 0 0 1 1 1 1 1 -0 0 1 2
2 2 2 1 1 1 1 2 8 7 9 10 9 7 3 6 7 7 8 8 7 6 2 1 1 1 1 1 1 1 0 0 0 0 1 1 1 1 1 1 1 1 2
2 2 1 2 2 2 2 3 4 6 8 9 10 9 9 8 8 8 8 8 7 6 2 1 1 1 1 1 1 1 1 1 -0 1 1 1 1 1 1 1 2 1 2
1 5 1 2 2 3 3 3 4 5 6 5 8 7 7 8 8 8 7 6 1 4 3 1 1 1 1 1 1 2 1 1 1 1 1 1 1 1 2 2 2 2 2
1 1 2 2 3 3 3 3 4 4 3 2 1 4 5 7 7 7 7 2 1 1 1 1 1 0 0 0 1 1 0 1 2 1 1 1 1 2 2 2 3 4 4
2 3 2 2 4 3 3 4 3 2 1 1 1 1 0 1 1 1 0 1 1 1 0 1 0 0 0 1 2 2 2 2 2 2 2 2 2 2 2 3 3 3 2
2 2 2 3 3 3 3 2 2 1 1 1 1 0 4 0 1 0 1 0 1 1 0 -0 -0 0 1 2 2 2 3 3 3 3 4 4 4 4 3 2 2 2 2
2 2 3 2 3 3 2 1 1 1 1 1 1 1 5 0 1 1 1 -0 0 -1 -0 -0 1 1 1 1 2 3 3 4 3 4 5 5 5 6 5 4 3 2 2
1 2 3 3 2 3 1 0 1 1 1 1 1 1 1 1 0 0 0 -0 -0 -1 -1 0 2 2 1 1 2 2 3 3 4 5 6 6 6 6 5 4 3 2 2
2 2 3 2 1 1 1 1 0 2 1 1 0 0 0 0 1 1 0 -0 -1 -1 -0 1 2 2 1 1 1 1 2 4 5 6 6 6 6 5 5 3 2 2 2
1 2 1 1 1 1 1 1 1 1 0 -0 0 0 0 1 0 0 0 -0 -1 -0 1 2 2 2 1 1 1 2 8 13 7 10 6 6 6 5 4 3 2 2 2
1 1 0 0 1 0 1 1 0 0 0 0 -0 -0 -0 0 0 0 -0 -1 -0 -0 1 2 2 1 0 1 3 8 12 13 9 13 9 6 5 5 3 2 2 2 2